Location: Omaha
(41.2590°N, 95.9380°W)
Time: 12:46:34
(UTC-05:00)

Vanguard 1 - All Passes

Search period start: 21 October 2017 00:00
Search period end: 31 October 2017 00:00
Orbit: 650 x 3834 km, 34.3° (Epoch: 20 October)

Date Brightness Start Highest point End Pass type
(mag) Time Alt. Az. Time Alt. Az. Time Alt. Az.
21 Oct - 00:26:29 10° SSW 00:36:57 43° SE 00:54:29 10° E visible
21 Oct - 02:45:23 10° WSW 02:59:57 68° S 03:22:47 10° E visible
21 Oct - 05:07:03 10° W 05:25:51 66° SSW 05:48:54 10° ESE visible
21 Oct - 07:31:22 10° W 07:51:20 43° SW 08:10:31 10° SSE daylight
21 Oct - 10:03:24 10° W 10:13:44 15° SW 10:23:11 10° SSW daylight
21 Oct - 22:32:03 10° SSE 22:37:57 17° SE 22:45:53 10° E night (unlit)
22 Oct - 00:46:48 10° SW 00:57:41 50° SSE 01:16:23 10° E visible
22 Oct - 03:06:20 10° WSW 03:21:20 70° S 03:44:26 10° E visible
22 Oct - 05:28:20 10° W 05:47:16 61° SSW 06:09:55 10° SE visible
22 Oct - 07:53:18 10° W 08:12:11 36° SW 08:30:15 10° SSE daylight
22 Oct - 22:50:54 10° S 22:58:08 24° SE 23:08:57 10° E night (unlit)
23 Oct - 01:07:20 10° SW 01:18:34 57° SSE 01:38:13 10° E visible
23 Oct - 03:27:22 10° W 03:42:46 70° S 04:06:00 10° ESE visible
23 Oct - 05:49:41 10° W 06:08:36 56° SSW 06:30:42 10° SE visible
23 Oct - 08:15:40 10° W 08:32:55 29° SW 08:49:26 10° S daylight
23 Oct - 23:10:29 10° SSW 23:18:26 31° SE 23:31:20 10° E visible
24 Oct - 01:28:01 10° WSW 01:39:38 62° SSE 02:00:00 10° E visible
24 Oct - 03:48:27 10° W 04:04:13 68° S 04:27:27 10° ESE visible
24 Oct - 06:11:06 10° W 06:29:49 49° SSW 06:51:11 10° SE visible
24 Oct - 08:38:45 10° W 08:53:32 22° SW 09:07:49 10° S daylight
24 Oct - 23:30:29 10° SSW 23:38:56 39° SE 23:53:24 10° E visible
25 Oct - 01:48:49 10° WSW 02:00:49 66° S 02:21:45 10° E visible
25 Oct - 04:09:34 10° W 04:25:39 64° SSW 04:48:45 10° ESE visible
25 Oct - 06:32:42 10° W 06:50:56 42° SW 07:11:20 10° SSE visible
25 Oct - 09:03:21 10° W 09:14:07 15° SW 09:24:37 10° SSW daylight
25 Oct - 21:36:58 10° SSE 21:40:34 13° SE 21:44:58 10° ESE night (unlit)
25 Oct - 23:50:47 10° SW 23:59:35 47° SSE 00:15:17 10° E visible
26 Oct - 02:09:43 10° WSW 02:22:05 68° S 02:43:27 10° E visible
26 Oct - 04:30:45 10° W 04:47:02 59° SSW 05:09:49 10° SE visible
26 Oct - 06:54:33 10° W 07:11:55 35° SW 07:31:01 10° SSE visible
26 Oct - 21:55:22 10° S 22:00:45 19° SE 22:08:24 10° E night (unlit)
27 Oct - 00:11:17 10° SW 00:20:25 54° SSE 00:37:05 10° E visible
27 Oct - 02:30:40 10° W 02:43:25 68° S 03:05:04 10° ESE visible
27 Oct - 04:51:59 10° W 05:08:22 54° SSW 05:30:38 10° SE visible
27 Oct - 07:16:50 10° W 07:32:49 28° SW 07:50:07 10° S visible
27 Oct - 22:14:50 10° SSW 22:21:05 27° SE 22:30:49 10° E night (unlit)
28 Oct - 00:31:56 10° WSW 00:41:23 60° SSE 00:58:50 10° E visible
28 Oct - 02:51:40 10° W 03:04:46 66° S 03:26:34 10° ESE visible
28 Oct - 05:13:20 10° W 05:29:38 47° SSW 05:51:08 10° SE visible
28 Oct - 07:39:51 10° W 07:53:40 21° SW 08:08:21 10° S daylight
28 Oct - 22:34:48 10° SSW 22:41:32 34° SE 22:52:49 10° E night (unlit)
29 Oct - 00:52:42 10° WSW 01:02:28 63° S 01:20:34 10° E visible
29 Oct - 03:12:43 10° W 03:26:07 62° SSW 03:47:54 10° ESE visible
29 Oct - 05:34:51 10° W 05:50:48 40° SSW 06:11:15 10° SSE visible
29 Oct - 08:04:28 10° WSW 08:14:27 15° SW 08:24:51 10° SSW daylight
29 Oct - 22:55:04 10° SW 23:02:09 42° SSE 23:14:38 10° E night (unlit)
30 Oct - 01:13:32 10° WSW 01:23:37 65° S 01:42:15 10° E visible
30 Oct - 03:33:49 10° W 03:47:26 56° SSW 04:09:00 10° SE visible
30 Oct - 05:56:39 10° W 06:11:55 33° SW 06:30:52 10° SSE visible
30 Oct - 21:00:08 10° SSE 21:03:49 15° SE 21:08:33 10° ESE visible
30 Oct - 23:15:33 10° SW 23:22:55 50° SSE 23:36:21 10° E night (unlit)
